Time,TemperatureF,DewpointF,PressureIn,WindDirection,WindDirectionDegrees,WindSpeedMPH,WindSpeedGustMPH,Humidity,HourlyPrecipIn,Conditions,Clouds,dailyrainin,SolarRadiationWatts/m^2,SoftwareType,DateUTC
2013-09-01 00:01:00,65.0,65.0,-100.00,North,6,1.0,2.0,99,0.00,,,0.15,0.000000,,2013-09-01 04:01:00,
2013-09-01 00:25:00,65.0,65.0,-100.00,North,6,1.0,2.0,99,0.00,,,0.15,0.000000,,2013-09-01 04:25:00,
2013-09-01 00:34:00,65.0,65.0,-100.00,North,6,1.0,2.0,99,0.00,,,0.15,0.000000,,2013-09-01 04:34:00,
2013-09-01 00:43:00,65.0,65.0,-100.00,North,6,1.0,2.0,99,0.00,,,0.15,0.000000,,2013-09-01 04:43:00,
2013-09-01 00:54:00,65.0,65.0,-100.00,North,6,1.0,2.0,99,0.00,,,0.15,0.000000,,2013-09-01 04:54:00,
2013-09-01 01:01:00,64.0,64.0,-100.00,SW,235,1.0,2.0,99,0.00,,,0.15,0.000000,,2013-09-01 05:01:00,
2013-09-01 01:23:00,64.0,64.0,-100.00,SW,235,1.0,2.0,99,0.00,,,0.15,0.000000,,2013-09-01 05:23:00,
2013-09-01 01:34:00,64.0,64.0,-100.00,SW,235,1.0,2.0,99,0.00,,,0.15,0.000000,,2013-09-01 05:34:00,
2013-09-01 01:43:00,64.0,64.0,-100.00,SW,235,1.0,2.0,99,0.00,,,0.15,0.000000,,2013-09-01 05:43:00,
2013-09-01 01:52:00,64.0,64.0,-100.00,SW,235,1.0,2.0,99,0.00,,,0.15,0.000000,,2013-09-01 05:52:00,
2013-09-01 02:01:00,65.0,65.0,-100.00,SSW,203,1.0,3.0,99,0.00,,,0.15,0.000000,,2013-09-01 06:01:00,
2013-09-01 02:42:00,65.0,65.0,-100.00,SSW,203,1.0,3.0,99,0.00,,,0.15,0.000000,,2013-09-01 06:42:00,
2013-09-01 02:52:00,65.0,65.0,-100.00,SSW,203,1.0,3.0,99,0.00,,,0.15,0.000000,,2013-09-01 06:52:00,
2013-09-01 03:01:00,65.0,65.0,-100.00,SSW,212,1.0,2.0,99,0.00,,,0.15,0.000000,,2013-09-01 07:01:00,
2013-09-01 03:22:00,65.0,65.0,-100.00,SSW,212,1.0,2.0,99,0.00,,,0.15,0.000000,,2013-09-01 07:22:00,
2013-09-01 03:32:00,65.0,65.0,-100.00,SSW,212,1.0,2.0,99,0.00,,,0.15,0.000000,,2013-09-01 07:32:00,
2013-09-01 03:42:00,65.0,65.0,-100.00,SSW,212,1.0,2.0,99,0.00,,,0.15,0.000000,,2013-09-01 07:42:00,
2013-09-01 03:52:00,65.0,65.0,-100.00,SSW,212,1.0,2.0,99,0.00,,,0.15,0.000000,,2013-09-01 07:52:00,
2013-09-01 04:01:00,65.0,65.0,-100.00,NNE,12,1.0,2.0,99,0.00,,,0.15,0.000000,,2013-09-01 08:01:00,
2013-09-01 04:22:00,65.0,65.0,-100.00,NNE,12,1.0,2.0,99,0.00,,,0.15,0.000000,,2013-09-01 08:22:00,
2013-09-01 04:32:00,65.0,65.0,-100.00,NNE,12,1.0,2.0,99,0.00,,,0.15,0.000000,,2013-09-01 08:32:00,
2013-09-01 04:43:00,65.0,65.0,-100.00,NNE,12,1.0,2.0,99,0.00,,,0.15,0.000000,,2013-09-01 08:43:00,
2013-09-01 04:52:00,65.0,65.0,-100.00,NNE,12,1.0,2.0,99,0.00,,,0.15,0.000000,,2013-09-01 08:52:00,
2013-09-01 05:01:00,65.0,65.0,-100.00,ENE,58,1.0,2.0,99,0.00,,,0.15,0.000000,,2013-09-01 09:01:00,
2013-09-01 05:22:00,65.0,65.0,-100.00,ENE,58,1.0,2.0,99,0.00,,,0.15,0.000000,,2013-09-01 09:22:00,
2013-09-01 05:34:00,65.0,65.0,-100.00,ENE,58,1.0,2.0,99,0.00,,,0.15,0.000000,,2013-09-01 09:34:00,
2013-09-01 05:43:00,65.0,65.0,-100.00,ENE,58,1.0,2.0,99,0.00,,,0.15,0.000000,,2013-09-01 09:43:00,
2013-09-01 05:53:00,65.0,65.0,-100.00,ENE,58,1.0,2.0,99,0.00,,,0.15,0.000000,,2013-09-01 09:53:00,
2013-09-01 06:01:00,65.0,65.0,-100.00,SW,218,0.0,2.0,99,0.00,,,0.15,0.000000,,2013-09-01 10:01:00,
2013-09-01 06:23:00,65.0,65.0,-100.00,SW,218,0.0,2.0,99,0.00,,,0.15,0.000000,,2013-09-01 10:23:00,
2013-09-01 06:33:00,65.0,65.0,-100.00,SW,218,0.0,2.0,99,0.00,,,0.15,0.000000,,2013-09-01 10:33:00,
2013-09-01 06:42:00,65.0,65.0,-100.00,SW,218,0.0,2.0,99,0.00,,,0.15,0.000000,,2013-09-01 10:42:00,
2013-09-01 06:53:00,65.0,65.0,-100.00,SW,218,0.0,2.0,99,0.00,,,0.15,0.000000,,2013-09-01 10:53:00,
2013-09-01 07:01:00,65.0,65.0,-100.00,North,3,1.0,2.0,99,0.00,,,0.15,1.000000,,2013-09-01 11:01:00,
2013-09-01 07:22:00,65.0,65.0,-100.00,North,3,1.0,2.0,99,0.00,,,0.15,1.000000,,2013-09-01 11:22:00,
2013-09-01 07:32:00,65.0,65.0,-100.00,North,3,1.0,2.0,99,0.00,,,0.15,1.000000,,2013-09-01 11:32:00,
2013-09-01 07:42:00,65.0,65.0,-100.00,North,3,1.0,2.0,99,0.00,,,0.15,1.000000,,2013-09-01 11:42:00,
2013-09-01 07:52:00,65.0,65.0,-100.00,North,3,1.0,2.0,99,0.00,,,0.15,1.000000,,2013-09-01 11:52:00,
2013-09-01 08:01:00,65.0,65.0,-100.00,North,351,1.0,2.0,99,0.01,,,0.16,24.000000,,2013-09-01 12:01:00,
2013-09-01 08:22:00,65.0,65.0,-100.00,North,351,1.0,2.0,99,0.01,,,0.16,24.000000,,2013-09-01 12:22:00,
2013-09-01 08:32:00,65.0,65.0,-100.00,North,351,1.0,2.0,99,0.01,,,0.16,24.000000,,2013-09-01 12:32:00,
2013-09-01 08:42:00,65.0,65.0,-100.00,North,351,1.0,2.0,99,0.01,,,0.16,24.000000,,2013-09-01 12:42:00,
2013-09-01 08:52:00,65.0,65.0,-100.00,North,351,1.0,2.0,99,0.01,,,0.16,24.000000,,2013-09-01 12:52:00,
2013-09-01 09:01:00,66.0,66.0,-100.00,SW,214,1.0,2.0,99,0.00,,,0.16,104.000000,,2013-09-01 13:01:00,
2013-09-01 09:42:00,66.0,66.0,-100.00,SW,214,1.0,2.0,99,0.00,,,0.16,104.000000,,2013-09-01 13:42:00,
2013-09-01 09:52:00,66.0,66.0,-100.00,SW,214,1.0,2.0,99,0.00,,,0.16,104.000000,,2013-09-01 13:52:00,
2013-09-01 10:01:00,67.0,67.0,-100.00,ENE,63,1.0,4.0,99,0.00,,,0.16,183.000000,,2013-09-01 14:01:00,
2013-09-01 10:22:00,67.0,67.0,-100.00,ENE,63,1.0,4.0,99,0.00,,,0.16,183.000000,,2013-09-01 14:22:00,
2013-09-01 10:32:00,67.0,67.0,-100.00,ENE,63,1.0,4.0,99,0.00,,,0.16,183.000000,,2013-09-01 14:32:00,
2013-09-01 10:42:00,67.0,67.0,-100.00,ENE,63,1.0,4.0,99,0.00,,,0.16,183.000000,,2013-09-01 14:42:00,
2013-09-01 10:52:00,67.0,67.0,-100.00,ENE,63,1.0,4.0,99,0.00,,,0.16,183.000000,,2013-09-01 14:52:00,
2013-09-01 11:01:00,69.0,69.0,-100.00,SSW,210,1.0,4.0,99,0.00,,,0.16,223.000000,,2013-09-01 15:01:00,
2013-09-01 11:23:00,69.0,69.0,-100.00,SSW,210,1.0,4.0,99,0.00,,,0.16,223.000000,,2013-09-01 15:23:00,
2013-09-01 11:34:00,69.0,69.0,-100.00,SSW,210,1.0,4.0,99,0.00,,,0.16,223.000000,,2013-09-01 15:34:00,
2013-09-01 11:45:00,69.0,69.0,-100.00,SSW,210,1.0,4.0,99,0.00,,,0.16,223.000000,,2013-09-01 15:45:00,
2013-09-01 11:55:00,69.0,69.0,-100.00,SSW,210,1.0,4.0,99,0.00,,,0.16,223.000000,,2013-09-01 15:55:00,
2013-09-01 12:01:00,76.0,72.0,-100.00,South,190,2.0,4.0,88,0.00,,,0.16,513.000000,,2013-09-01 16:01:00,
2013-09-01 12:43:00,76.0,72.0,-100.00,South,190,2.0,4.0,88,0.00,,,0.16,513.000000,,2013-09-01 16:43:00,
2013-09-01 12:53:00,76.0,72.0,-100.00,South,190,2.0,4.0,88,0.00,,,0.16,513.000000,,2013-09-01 16:53:00,
2013-09-01 13:01:00,80.0,71.0,-100.00,SSE,164,1.0,5.0,74,0.00,,,0.16,637.000000,,2013-09-01 17:01:00,
2013-09-01 13:23:00,80.0,71.0,-100.00,SSE,164,1.0,5.0,74,0.00,,,0.16,637.000000,,2013-09-01 17:23:00,
2013-09-01 13:34:00,80.0,71.0,-100.00,SSE,164,1.0,5.0,74,0.00,,,0.16,637.000000,,2013-09-01 17:34:00,
2013-09-01 13:42:00,80.0,71.0,-100.00,SSE,164,1.0,5.0,74,0.00,,,0.16,637.000000,,2013-09-01 17:42:00,
2013-09-01 13:52:00,80.0,71.0,-100.00,SSE,164,1.0,5.0,74,0.00,,,0.16,637.000000,,2013-09-01 17:52:00,
2013-09-01 14:01:00,79.0,71.0,-100.00,SW,220,1.0,5.0,76,0.00,,,0.16,403.000000,,2013-09-01 18:01:00,
2013-09-01 14:22:00,79.0,71.0,-100.00,SW,220,1.0,5.0,76,0.00,,,0.16,403.000000,,2013-09-01 18:22:00,
2013-09-01 14:32:00,79.0,71.0,-100.00,SW,220,1.0,5.0,76,0.00,,,0.16,403.000000,,2013-09-01 18:32:00,
2013-09-01 14:42:00,79.0,71.0,-100.00,SW,220,1.0,5.0,76,0.00,,,0.16,403.000000,,2013-09-01 18:42:00,
2013-09-01 14:52:00,79.0,71.0,-100.00,SW,220,1.0,5.0,76,0.00,,,0.16,403.000000,,2013-09-01 18:52:00,
2013-09-01 15:01:00,80.0,71.0,-100.00,SSW,206,2.0,5.0,74,0.00,,,0.16,397.000000,,2013-09-01 19:01:00,
2013-09-01 15:42:00,80.0,71.0,-100.00,SSW,206,2.0,5.0,74,0.00,,,0.16,397.000000,,2013-09-01 19:42:00,
2013-09-01 15:52:00,80.0,71.0,-100.00,SSW,206,2.0,5.0,74,0.00,,,0.16,397.000000,,2013-09-01 19:52:00,
2013-09-01 16:01:00,78.0,70.0,-100.00,NW,323,1.0,2.0,76,0.00,,,0.16,215.000000,,2013-09-01 20:01:00,
2013-09-01 16:22:00,78.0,70.0,-100.00,NW,323,1.0,2.0,76,0.00,,,0.16,215.000000,,2013-09-01 20:22:00,
2013-09-01 16:32:00,78.0,70.0,-100.00,NW,323,1.0,2.0,76,0.00,,,0.16,215.000000,,2013-09-01 20:32:00,
2013-09-01 16:42:00,78.0,70.0,-100.00,NW,323,1.0,2.0,76,0.00,,,0.16,215.000000,,2013-09-01 20:42:00,
2013-09-01 16:52:00,78.0,70.0,-100.00,NW,323,1.0,2.0,76,0.00,,,0.16,215.000000,,2013-09-01 20:52:00,
2013-09-01 17:01:00,77.0,68.0,-100.00,WSW,239,0.0,3.0,75,0.00,,,0.16,194.000000,,2013-09-01 21:01:00,
2013-09-01 17:22:00,77.0,68.0,-100.00,WSW,239,0.0,3.0,75,0.00,,,0.16,194.000000,,2013-09-01 21:22:00,
2013-09-01 17:34:00,77.0,68.0,-100.00,WSW,239,0.0,3.0,75,0.00,,,0.16,194.000000,,2013-09-01 21:34:00,
2013-09-01 17:44:00,77.0,68.0,-100.00,WSW,239,0.0,3.0,75,0.00,,,0.16,194.000000,,2013-09-01 21:44:00,
2013-09-01 17:55:00,77.0,68.0,-100.00,WSW,239,0.0,3.0,75,0.00,,,0.16,194.000000,,2013-09-01 21:55:00,
2013-09-01 18:01:00,78.0,71.0,-100.00,West,272,1.0,2.0,78,0.00,,,0.05,197.000000,,2013-09-01 22:01:00,
2013-09-01 18:24:00,78.0,71.0,-100.00,West,272,1.0,2.0,78,0.00,,,0.05,197.000000,,2013-09-01 22:24:00,
2013-09-01 18:34:00,78.0,71.0,-100.00,West,272,1.0,2.0,78,0.00,,,0.05,197.000000,,2013-09-01 22:34:00,
2013-09-01 18:43:00,78.0,71.0,-100.00,West,272,1.0,2.0,78,0.00,,,0.05,197.000000,,2013-09-01 22:43:00,
2013-09-01 18:53:00,78.0,71.0,-100.00,West,272,1.0,2.0,78,0.00,,,0.05,197.000000,,2013-09-01 22:53:00,
2013-09-01 19:01:00,74.0,70.0,-100.00,NW,312,1.0,3.0,86,0.00,,,0.01,91.000000,,2013-09-01 23:01:00,
2013-09-01 19:23:00,74.0,70.0,-100.00,NW,312,1.0,3.0,86,0.00,,,0.01,91.000000,,2013-09-01 23:23:00,
2013-09-01 19:34:00,74.0,70.0,-100.00,NW,312,1.0,3.0,86,0.00,,,0.01,91.000000,,2013-09-01 23:34:00,
2013-09-01 19:42:00,74.0,70.0,-100.00,NW,312,1.0,3.0,86,0.00,,,0.01,91.000000,,2013-09-01 23:42:00,
2013-09-01 19:53:00,74.0,70.0,-100.00,NW,312,1.0,3.0,86,0.00,,,0.01,91.000000,,2013-09-01 23:53:00,
2013-09-01 20:01:00,71.0,64.0,-100.00,SSW,199,2.0,4.0,79,0.00,,,0.01,21.000000,,2013-09-02 00:01:00,
2013-09-01 20:22:00,71.0,64.0,-100.00,SSW,199,2.0,4.0,79,0.00,,,0.01,21.000000,,2013-09-02 00:22:00,
2013-09-01 20:33:00,71.0,64.0,-100.00,SSW,199,2.0,4.0,79,0.00,,,0.01,21.000000,,2013-09-02 00:33:00,
2013-09-01 20:42:00,71.0,64.0,-100.00,SSW,199,2.0,4.0,79,0.00,,,0.01,21.000000,,2013-09-02 00:42:00,
2013-09-01 20:52:00,71.0,64.0,-100.00,SSW,199,2.0,4.0,79,0.00,,,0.01,21.000000,,2013-09-02 00:52:00,
2013-09-01 21:01:00,70.0,63.0,-100.00,SSW,198,3.0,4.0,79,0.00,,,0.01,0.000000,,2013-09-02 01:01:00,
2013-09-01 21:42:00,70.0,63.0,-100.00,SSW,198,3.0,4.0,79,0.00,,,0.01,0.000000,,2013-09-02 01:42:00,
2013-09-01 21:52:00,70.0,63.0,-100.00,SSW,198,3.0,4.0,79,0.00,,,0.01,0.000000,,2013-09-02 01:52:00,
2013-09-01 22:01:00,70.0,68.0,-100.00,SW,217,3.0,6.0,93,0.00,,,0.01,0.000000,,2013-09-02 02:01:00,
2013-09-01 22:22:00,70.0,68.0,-100.00,SW,217,3.0,6.0,93,0.00,,,0.01,0.000000,,2013-09-02 02:22:00,
2013-09-01 22:33:00,70.0,68.0,-100.00,SW,217,3.0,6.0,93,0.00,,,0.01,0.000000,,2013-09-02 02:33:00,
2013-09-01 22:42:00,70.0,68.0,-100.00,SW,217,3.0,6.0,93,0.00,,,0.01,0.000000,,2013-09-02 02:42:00,
2013-09-01 22:52:00,70.0,68.0,-100.00,SW,217,3.0,6.0,93,0.00,,,0.01,0.000000,,2013-09-02 02:52:00,
2013-09-01 23:01:00,69.0,66.0,-100.00,SW,221,2.0,6.0,91,0.00,,,0.01,0.000000,,2013-09-02 03:01:00,
2013-09-01 23:22:00,69.0,66.0,-100.00,SW,221,2.0,6.0,91,0.00,,,0.01,0.000000,,2013-09-02 03:22:00,
2013-09-01 23:34:00,69.0,66.0,-100.00,SW,221,2.0,6.0,91,0.00,,,0.01,0.000000,,2013-09-02 03:34:00,
2013-09-01 23:44:00,69.0,66.0,-100.00,SW,221,2.0,6.0,91,0.00,,,0.01,0.000000,,2013-09-02 03:44:00,
2013-09-01 23:56:00,69.0,66.0,-100.00,SW,221,2.0,6.0,91,0.00,,,0.01,0.000000,,2013-09-02 03:56:00,